DLH111 LEPA-EDDF

Flight info

Callsign DLH111
Flight time N/A
Altitude 32000
Route MEROS DCT LAPIT DCT CHELY DCT LUMAS DCT MAXIR DCT LUSOL DCT BODRU DCT OKTET DCT IRMAR/N0486F380 DCT KINES DCT VANAS DCT MOBLO DCT UBIMA DCT SOSAL/N0488F400 DCT KORED DCT BERSU N871 DITON/N0490F390 DCT LADOL/N0489F400 T163 EMPAX EMPAX5B
Aircraft A35K/H-SDE2E3GHIJ3J4J5LM1ORWXY/LB1D1

Departure

Time N/A
Airport Palma de Mallorca Airport (LEPA)

Arrival

Time 2026-05-07 17:42
Airport Frankfurt Main Airport (EDDF)
Time Latitude Longitude Altitude Speed Heading
2026-05-07 17:16 48.21448 8.95978 38543 ft 506 kts
2026-05-07 17:16 48.24936 8.96554 37818 ft 505 kts
2026-05-07 17:17 48.28394 8.97093 36811 ft 497 kts
2026-05-07 17:17 48.31823 8.97621 35745 ft 491 kts
2026-05-07 17:17 48.35176 8.98135 35080 ft 477 kts
2026-05-07 17:17 48.38439 8.98635 34403 ft 466 kts
2026-05-07 17:18 48.41663 8.99124 33702 ft 467 kts
2026-05-07 17:18 48.44896 8.99613 32982 ft 468 kts
2026-05-07 17:18 48.48137 9.00109 32238 ft 467 kts
2026-05-07 17:18 48.51375 9.00605 31473 ft 467 kts
2026-05-07 17:19 48.54622 9.01098 30701 ft 472 kts
2026-05-07 17:19 48.57895 9.01596 29896 ft 473 kts
2026-05-07 17:19 48.61173 9.02098 29072 ft 475 kts
2026-05-07 17:19 48.64458 9.02625 28418 ft 472 kts
2026-05-07 17:20 48.67690 9.03374 27843 ft 468 kts
2026-05-07 17:20 48.70844 9.04180 27271 ft 464 kts
2026-05-07 17:20 48.74012 9.04972 26674 ft 460 kts
2026-05-07 17:20 48.77157 9.05745 26103 ft 456 kts
2026-05-07 17:21 48.80267 9.06501 25525 ft 451 kts
2026-05-07 17:21 48.83364 9.07250 24953 ft 447 kts
2026-05-07 17:21 48.86427 9.07988 24391 ft 444 kts
2026-05-07 17:21 48.89455 9.08708 23829 ft 439 kts
2026-05-07 17:22 48.92475 9.09192 23269 ft 434 kts
2026-05-07 17:22 48.95472 9.09561 22723 ft 430 kts
2026-05-07 17:22 48.98440 9.09939 22169 ft 426 kts
2026-05-07 17:22 49.01380 9.10333 21623 ft 422 kts
2026-05-07 17:23 49.04297 9.10730 21067 ft 419 kts
2026-05-07 17:23 49.07183 9.11134 20527 ft 415 kts
2026-05-07 17:23 49.10048 9.11539 19980 ft 412 kts
2026-05-07 17:23 49.12890 9.11943 19424 ft 409 kts
2026-05-07 17:24 49.15710 9.12346 18870 ft 406 kts
2026-05-07 17:24 49.18510 9.12746 18315 ft 403 kts
2026-05-07 17:24 49.21291 9.13144 17763 ft 400 kts
2026-05-07 17:24 49.24054 9.13540 17202 ft 398 kts
2026-05-07 17:25 49.26798 9.13935 16645 ft 395 kts
2026-05-07 17:25 49.29506 9.14569 16069 ft 394 kts 10°
2026-05-07 17:25 49.32175 9.15476 15515 ft 391 kts 11°
2026-05-07 17:25 49.34817 9.16417 14957 ft 389 kts 11°
2026-05-07 17:26 49.37453 9.17361 14386 ft 387 kts 11°
2026-05-07 17:26 49.40067 9.18291 13807 ft 385 kts 11°
2026-05-07 17:26 49.42666 9.19215 13259 ft 382 kts 11°
2026-05-07 17:26 49.45249 9.20134 12687 ft 380 kts 11°
2026-05-07 17:27 49.47812 9.21045 12123 ft 377 kts 11°
2026-05-07 17:27 49.50359 9.21953 11556 ft 374 kts 11°
2026-05-07 17:27 49.52887 9.22854 10985 ft 371 kts 11°
2026-05-07 17:27 49.55396 9.23748 10807 ft 373 kts 11°
2026-05-07 17:28 49.57937 9.24655 10729 ft 372 kts 11°
2026-05-07 17:28 49.60399 9.25535 10609 ft 354 kts 11°
2026-05-07 17:28 49.62772 9.25905 10499 ft 334 kts 355°
2026-05-07 17:28 49.64993 9.25330 10393 ft 315 kts 345°
2026-05-07 17:29 49.67069 9.24535 10277 ft 300 kts 343°
2026-05-07 17:29 49.69021 9.23764 10144 ft 287 kts 343°
2026-05-07 17:29 49.70952 9.22999 10048 ft 281 kts 343°
2026-05-07 17:29 49.72829 9.22256 10044 ft 282 kts 343°
2026-05-07 17:30 49.74728 9.21502 10045 ft 283 kts 343°
2026-05-07 17:30 49.76635 9.20745 10045 ft 282 kts 343°
2026-05-07 17:30 49.78533 9.19993 9914 ft 278 kts 343°
2026-05-07 17:30 49.80403 9.19250 9480 ft 278 kts 343°
2026-05-07 17:31 49.82286 9.18492 9029 ft 279 kts 343°
2026-05-07 17:31 49.83794 9.17884 8682 ft 277 kts 343°
2026-05-07 17:31 49.84462 9.17613 8534 ft 277 kts 343°
2026-05-07 17:31 49.86296 9.16871 8132 ft 275 kts 343°
2026-05-07 17:32 49.88137 9.16124 7725 ft 273 kts 343°
2026-05-07 17:32 49.89964 9.15381 7319 ft 271 kts 343°
2026-05-07 17:32 49.91781 9.14635 7081 ft 269 kts 343°
2026-05-07 17:32 49.93005 9.14129 7046 ft 270 kts 343°
2026-05-07 17:33 49.95402 9.13137 7042 ft 269 kts 343°
2026-05-07 17:33 49.97209 9.12389 7043 ft 269 kts 343°
2026-05-07 17:33 49.99013 9.11640 7043 ft 269 kts 343°
2026-05-07 17:33 50.00824 9.10889 7044 ft 269 kts 343°
2026-05-07 17:34 50.02630 9.10129 7042 ft 269 kts 343°
2026-05-07 17:34 50.04444 9.09351 6683 ft 272 kts 343°
2026-05-07 17:34 50.06247 9.08548 6333 ft 267 kts 340°
2026-05-07 17:34 50.07818 9.07091 5930 ft 264 kts 315°
2026-05-07 17:35 50.08534 9.05546 5724 ft 259 kts 296°
2026-05-07 17:35 50.09094 9.02936 5555 ft 249 kts 285°
2026-05-07 17:35 50.09479 9.00362 5374 ft 239 kts 284°
2026-05-07 17:35 50.09828 8.97914 5218 ft 230 kts 283°
2026-05-07 17:36 50.10157 8.95539 5067 ft 219 kts 284°
2026-05-07 17:36 50.10476 8.93267 4931 ft 210 kts 283°
2026-05-07 17:36 50.10773 8.91091 4762 ft 202 kts 283°
2026-05-07 17:36 50.10960 8.88912 4386 ft 202 kts 268°
2026-05-07 17:37 50.10672 8.86777 4097 ft 202 kts 253°
2026-05-07 17:37 50.10200 8.84730 3829 ft 199 kts 251°
2026-05-07 17:37 50.09732 8.82725 3563 ft 195 kts 251°
2026-05-07 17:37 50.09267 8.80757 3314 ft 192 kts 251°
2026-05-07 17:38 50.08811 8.78844 3081 ft 186 kts 251°
2026-05-07 17:38 50.08365 8.76967 2823 ft 182 kts 251°
2026-05-07 17:38 50.07940 8.75176 2574 ft 170 kts 251°
2026-05-07 17:38 50.07568 8.73499 2341 ft 158 kts 257°
2026-05-07 17:39 50.07414 8.71848 2066 ft 151 kts 265°
2026-05-07 17:39 50.07251 8.70241 1733 ft 150 kts 255°
2026-05-07 17:39 50.06916 8.68729 1469 ft 144 kts 246°
2026-05-07 17:39 50.06565 8.67284 1306 ft 143 kts 249°
2026-05-07 17:40 50.06223 8.65826 1143 ft 144 kts 249°
2026-05-07 17:40 50.05868 8.64377 1003 ft 143 kts 248°
2026-05-07 17:40 50.05522 8.62931 858 ft 143 kts 249°
2026-05-07 17:40 50.05182 8.61479 720 ft 143 kts 249°
2026-05-07 17:41 50.04837 8.60029 575 ft 142 kts 248°
2026-05-07 17:41 50.04490 8.58588 393 ft 142 kts 248°
2026-05-07 17:41 50.04161 8.57227 360 ft 113 kts 249°
2026-05-07 17:41 50.03966 8.56408 353 ft 50 kts 249°
2026-05-07 17:42 50.03881 8.56038 351 ft 25 kts 257°
2026-05-07 17:42 50.03888 8.55839 355 ft 14 kts 279°
2026-05-07 17:42 50.03898 8.55744 354 ft 0 kts 279°
2026-05-07 17:42 50.03900 8.55722 361 ft 4 kts 279°
2026-05-07 17:43 50.03905 8.55679 360 ft 4 kts 279°
2026-05-07 17:43 50.03911 8.55628 360 ft 0 kts 279°
2026-05-07 17:43 50.03911 8.55627 361 ft 0 kts 279°
2026-05-07 17:44 50.03912 8.55624 351 ft 2 kts 288°
2026-05-07 17:44 50.03972 8.55633 354 ft 19 kts 49°
2026-05-07 17:45 50.04040 8.55912 351 ft 25 kts 70°
2026-05-07 17:45 50.04095 8.56084 361 ft 14 kts 31°
2026-05-07 17:45 50.04186 8.56059 351 ft 8 kts 340°
2026-05-07 17:45 50.04188 8.56058 361 ft 0 kts 340°
2026-05-07 17:46 50.04195 8.56054 361 ft 3 kts 340°
2026-05-07 17:46 50.04228 8.56034 360 ft 7 kts 333°
2026-05-07 17:46 50.04292 8.55965 356 ft 17 kts 331°
2026-05-07 17:46 50.04430 8.55915 353 ft 22 kts
2026-05-07 17:47 50.04551 8.55969 357 ft 16 kts 15°
2026-05-07 17:47 50.04623 8.55953 356 ft 3 kts 341°
2026-05-07 17:47 50.04641 8.55944 351 ft 4 kts 341°
2026-05-07 17:47 50.04645 8.55942 351 ft 0 kts 341°